Rbgn^[z[y[W
メイン
   新天体発見情報
     Comet C/2021 G3 (PANSTARRS)
投稿するにはまず登録を

フラット表示 前のトピック | 次のトピック
投稿者 スレッド
佐藤裕久
投稿日時: 2021-7-7 0:02
モデレータ
登録日: 2005-6-12
居住地: 日本
投稿: 2622
オンライン
Comet C/2021 G3 (PANSTARRS)

R. Weryk (西オンタリオ大学,物理および天文学科)の通報によると、2021年4月1日、Haleakala 
にあるPan-STARRS1 1.8-m Ritchey-Chretien反射望遠鏡で得た画像から彗星を発見した。
彗星活動は発見画像では明らかではなかった。
Werykは、追加観測がなされ、確認された後、彗星のような軌道に基づき小惑星センターの
PCCP webpageにこの天体を公表した。彼は、4月6.28日UT、R. Wainscoat、H. Januszewskiと
T. Burdullis が、Mauna Keaにある3.6-m Canada-France-Hawaii望遠鏡で得た60秒3枚のgri-
バンドフォローアップ露出から、この天体は明らかに彗星で、0".6のシーイングでこの彗星は
大変集光した0".9 (半値全幅:FWHM)のコマが見え、短く、かすかな、p.a. 135°に2"の真直ぐ
な尾がある。

発見位置は次のとおり、

     2021 UT             R.A. (2000) Decl.       Mag.
     Apr.  1.25513    9 19 28.74   + 1 01 52.5   22.1
           1.26844    9 19 28.38   + 1 02 02.1   22.3
           1.29498    9 19 27.67   + 1 02 21.6   22.2

MPCの双曲線軌道要素、位置推算表は次のとおり、

Orbital elements:
    C/2021 G3 (PANSTARRS)                                                       
Epoch 2021 Nov. 2.0 TT = JDT 2459520.5                                          
T 2021 Oct. 18.62372 TT                                 Rudenko                 
q   5.1811370            (2000.0)            P               Q                  
z  -0.0002128      Peri.   10.65009     -0.80592481     +0.27372234             
 +/-0.0000303      Node   147.41877     +0.44574176     -0.30299001             
e   1.0011026      Incl.  102.88305     +0.38961452     +0.91283796             
From 44 observations 2021 Feb. 9-May 13, mean residual 0".3.                    
                                                                                
    C/2021 G3 (PANSTARRS)                                                       
Epoch 2021 July 5.0 TT = JDT 2459400.5                                          
T 2021 Oct. 18.72930 TT                                 Rudenko                 
q   5.1810863            (2000.0)            P               Q                  
z  -0.0002237      Peri.   10.66266     -0.80586564     +0.27389626             
 +/-0.0000303      Node   147.41881     +0.44567394     -0.30309218             
e   1.0011590      Incl.  102.88274     +0.38981445     +0.91275187             
From 44 observations 2021 Feb. 9-May 13, mean residual 0".3.                    
                                                                                
Ephemeris:
Date    TT    R. A. (2000) Decl.     Delta      r    Elong.  Phase   m1
2021 05 26    09 15 09.8 +09 43 01   5.4926  5.2966    73.6    10.6  21.4
...
2021 06 10    09 19 50.3 +11 13 25   5.7103  5.2743    59.9     9.6  21.5
...
2021 06 18    09 23 05.4 +11 54 08   5.8157  5.2634    52.8     8.8  21.5
...
2021 06 24    09 25 49.2 +12 21 41   5.8884  5.2556    47.5     8.2  21.6
2021 06 25    09 26 17.9 +12 26 03   5.8999  5.2543    46.6     8.1  21.6
2021 06 26    09 26 46.9 +12 30 22   5.9113  5.2531    45.8     8.0  21.6
...
2021 07 02    09 29 48.2 +12 54 57   5.9757  5.2458    40.6     7.2  21.6
...
2021 07 10    09 34 07.7 +13 24 43   6.0509  5.2367    33.8     6.2  21.6
...
2021 07 25    09 42 58.2 +14 13 07   6.1551  5.2215    21.3     4.0  21.6

(MPEC 2021-M86、CBET 4990)

フラット表示 前のトピック | 次のトピック

題名 投稿者 日時
 » Comet C/2021 G3 (PANSTARRS) 佐藤裕久 2021-7-7 0:02

投稿するにはまず登録を
 
© 1999 Tsutomu Seki.